EWG9G LDDU-EDDL

Flight info

Callsign EWG9G
Flight time N/A
Altitude 36000
Route AMUGO1W/11 AMUGO DCT MARIL DCT PETOV DCT LAMSI L604 RODIS DCT TESDU DCT AMETU T852 TINSA T854 DOMUX DOMUX1A
Aircraft A320/M-SDE3FGHIRWY/LB1

Departure

Time N/A
Airport Dubrovnik Ruđer Bošković Airport (LDDU)

Arrival

Time 2026-04-30 18:28
Airport Düsseldorf Airport (EDDL)
Time Latitude Longitude Altitude Speed Heading
2026-04-30 18:22 51.11488 6.61926 3167 ft 243 kts 253°
2026-04-30 18:22 51.11523 6.59225 2987 ft 245 kts 289°
2026-04-30 18:23 51.12429 6.56961 2990 ft 244 kts 320°
2026-04-30 18:23 51.13725 6.55247 2995 ft 243 kts 327°
2026-04-30 18:23 51.15136 6.53836 2989 ft 237 kts 345°
2026-04-30 18:23 51.16673 6.53533 2967 ft 208 kts 21°
2026-04-30 18:24 51.18660 6.55779 3096 ft 170 kts 57°
2026-04-30 18:24 51.19429 6.57260 2899 ft 172 kts 59°
2026-04-30 18:24 51.20171 6.58776 2686 ft 181 kts 60°
2026-04-30 18:25 51.20940 6.60392 2454 ft 185 kts 60°
2026-04-30 18:25 51.22460 6.63585 1945 ft 167 kts 61°
2026-04-30 18:25 51.23136 6.65006 1735 ft 153 kts 61°
2026-04-30 18:26 51.24307 6.67483 1376 ft 135 kts 61°
2026-04-30 18:26 51.24874 6.68702 1214 ft 135 kts 60°
2026-04-30 18:26 51.25437 6.69888 1028 ft 135 kts 59°
2026-04-30 18:27 51.26570 6.72267 674 ft 134 kts 58°
2026-04-30 18:27 51.27140 6.73460 500 ft 134 kts 58°
2026-04-30 18:28 51.28246 6.75800 183 ft 128 kts 54°
2026-04-30 18:28 51.28738 6.76836 154 ft 100 kts 52°
2026-04-30 18:28 51.29004 6.77570 154 ft 16 kts 129°
2026-04-30 18:29 51.28955 6.77627 154 ft 6 kts 146°
2026-04-30 18:29 51.28817 6.77800 154 ft 10 kts 144°
2026-04-30 18:30 51.28696 6.77798 154 ft 11 kts 233°
2026-04-30 18:30 51.28637 6.77560 153 ft 12 kts 232°
2026-04-30 18:31 51.28593 6.77471 153 ft 4 kts 231°
2026-04-30 18:31 51.28565 6.77414 154 ft 4 kts 239°
2026-04-30 18:32 51.28612 6.77332 153 ft 0 kts 322°